DF9PM-13 Weather Reports


Display with metric or nautical units.
time (UTC)temp
F
wind
direction
speed
MPH
gust
MPH
rain 1hr
in
rain 24hr
in
rain mn
in
humidity
%
barometer
mb
20260506090611 61 210 7.0 0.0 0.00 0.00 0.00 10 1006.1
20260506090111 61 210 7.0 0.0 0.00 0.00 0.00 10 1006.0
20260506085611 61 210 7.0 0.0 0.00 0.00 0.00 10 1006.0
20260506085111 62 210 7.0 0.0 0.00 0.00 0.00 10 1005.9
20260506084611 61 210 7.0 0.0 0.00 0.00 0.00 10 1005.9
20260506084111 61 210 8.0 0.0 0.00 0.00 0.00 10 1005.9
20260506083611 61 210 8.0 0.0 0.00 0.00 0.00 10 1005.9
20260506083111 61 210 8.0 0.0 0.00 0.00 0.00 10 1005.8
20260506082611 62 210 8.0 0.0 0.00 0.00 0.00 10 1005.8
20260506082111 61 210 8.0 0.0 0.00 0.00 0.00 10 1005.9
20260506081611 61 210 8.0 0.0 0.00 0.00 0.00 10 1005.8
20260506081111 61 210 8.0 0.0 0.00 0.00 0.00 10 1005.7
20260506080611 61 210 8.0 0.0 0.00 0.00 0.00 10 1005.7
20260506080111 61 210 8.0 0.0 0.00 0.00 0.00 10 1005.7
20260506073110 60 200 7.0 0.0 0.00 0.00 0.00 10 1005.8
20260506072610 61 200 7.0 0.0 0.00 0.00 0.00 10 1005.8
20260506072110 60 200 7.0 0.0 0.00 0.00 0.00 10 1005.8
20260506071609 60 200 7.0 0.0 0.00 0.00 0.00 10 1005.8
20260506071109 361 200 7.0 0.0 0.00 0.00 0.00 10 1005.7
20260506070609 361 190 6.0 0.0 0.00 0.00 0.00 10 1283.7
20260506070109 60 190 6.0 0.0 0.00 0.00 0.00 10 1005.7
20260506062109 58 190 6.0 0.0 0.00 0.00 0.00 10 1005.7
20260506061609 58 190 6.0 0.0 0.00 0.00 0.00 10 1005.7
20260506061109 58 180 4.0 0.0 0.00 0.00 0.00 10 1005.7
20260506060608 58 180 4.0 0.0 0.00 0.00 0.00 10 1005.7
20260506060108 57 180 4.0 0.0 0.00 0.00 0.00 10 1005.6
20260506051108 57 200 4.0 0.0 0.00 0.00 0.00 10 1005.6
20260506050608 56 200 5.0 0.0 0.00 0.00 0.00 10 1005.6
20260506050108 57 200 5.0 0.0 0.00 0.00 0.00 10 1005.7
20260506045108 57 200 5.0 0.0 0.00 0.00 0.00 10 1005.7
20260506044608 57 200 5.0 0.0 0.00 0.00 0.00 10 1005.7
20260506044108 58 190 5.0 0.0 0.00 0.00 0.00 10 1005.7
20260506043607 57 190 5.0 0.0 0.00 0.00 0.00 10 1005.7
20260506043107 57 190 5.0 0.0 0.00 0.00 0.00 10 1005.7
20260506042607 57 190 5.0 0.0 0.00 0.00 0.00 10 1005.8
20260506042107 57 190 5.0 0.0 0.00 0.00 0.00 10 1005.8
20260506041607 57 190 5.0 0.0 0.00 0.00 0.00 10 1005.7
20260506041107 56 190 4.0 0.0 0.00 0.00 0.00 10 1005.7
20260506040607 56 190 4.0 0.0 0.00 0.00 0.00 10 1005.7
20260506040107 56 190 4.0 0.0 0.00 0.00 0.00 10 1005.8
20260506035607 56 190 4.0 0.0 0.00 0.00 0.00 10 1005.9
20260506035107 56 190 4.0 0.0 0.00 0.00 0.00 10 1005.9
20260506034607 56 190 4.0 0.0 0.00 0.00 0.00 10 1005.8
20260506034107 56 190 4.0 0.0 0.00 0.00 0.00 10 1005.8
20260506033607 57 180 5.0 0.0 0.00 0.00 0.00 10 1005.9
20260506033107 57 180 5.0 0.0 0.00 0.00 0.00 10 1005.8
20260506032607 57 180 5.0 0.0 0.00 0.00 0.00 10 1005.9
20260506032107 57 180 5.0 0.0 0.00 0.00 0.00 10 1005.9
20260506031606 57 180 5.0 0.0 0.00 0.00 0.00 10 1006.0
20260506031107 56 180 5.0 0.0 0.00 0.00 0.00 10 1006.0
20260506030606 57 180 5.0 0.0 0.00 0.00 0.00 10 1006.0
20260506030106 57 190 5.0 0.0 0.00 0.00 0.00 10 1006.0
20260506025606 57 190 5.0 0.0 0.00 0.00 0.00 10 1005.9
20260506025106 57 190 5.0 0.0 0.00 0.00 0.00 10 1005.9
20260506024606 57 190 5.0 0.0 0.00 0.00 0.00 10 1005.9
20260506024106 56 190 5.0 0.0 0.00 0.00 0.00 10 1005.9
20260506023606 56 190 5.0 0.0 0.00 0.00 0.00 10 1005.9
20260506023106 57 190 4.0 0.0 0.00 0.00 0.00 10 1005.9
20260506022606 56 190 4.0 0.0 0.00 0.00 0.00 10 1005.9
20260506022106 57 190 4.0 0.0 0.00 0.00 0.00 10 1005.9
20260506021606 57 190 4.0 0.0 0.00 0.00 0.00 10 1006.0
20260506021106 57 190 4.0 0.0 0.00 0.00 0.00 10 1006.0
20260506020606 57 210 5.0 0.0 0.00 0.00 0.00 10 1006.1
20260506020106 57 210 5.0 0.0 0.00 0.00 0.00 10 1006.1
20260506015606 56 210 5.0 0.0 0.00 0.00 0.00 10 1006.1
20260506015106 56 210 5.0 0.0 0.00 0.00 0.00 10 1006.1
20260506014606 56 210 5.0 0.0 0.00 0.00 0.00 10 1006.1
20260506014105 56 210 5.0 0.0 0.00 0.00 0.00 10 1006.1
20260506013605 56 200 4.0 0.0 0.00 0.00 0.00 10 1006.2
20260506013105 56 200 4.0 0.0 0.00 0.00 0.00 10 1006.3
20260506012605 56 200 4.0 0.0 0.00 0.00 0.00 10 1006.3
20260506012105 56 200 4.0 0.0 0.00 0.00 0.00 10 1006.3
20260506011605 57 200 4.0 0.0 0.00 0.00 0.00 10 1006.4
20260506011105 57 200 4.0 0.0 0.00 0.00 0.00 10 1006.4
20260506010605 57 190 6.0 0.0 0.00 0.00 0.00 10 1006.3
20260506010105 57 190 6.0 0.0 0.00 0.00 0.00 10 1006.4
20260506005605 57 190 6.0 0.0 0.00 0.00 0.00 10 1006.4
20260506005105 56 190 6.0 0.0 0.00 0.00 0.00 10 1006.3
20260506004605 57 190 6.0 0.0 0.00 0.00 0.00 10 1006.3
20260506004105 57 190 6.0 0.0 0.00 0.00 0.00 10 1006.4
20260506003605 57 190 6.0 0.0 0.00 0.00 0.00 10 1006.4
20260506003105 57 190 7.0 0.0 0.00 0.00 0.00 10 1006.3
20260506002605 57 190 7.0 0.0 0.00 0.00 0.00 10 1006.4
20260506002105 58 190 7.0 0.0 0.00 0.00 0.00 10 1006.3
20260506001604 58 190 7.0 0.0 0.00 0.00 0.00 10 1006.4
20260506001105 58 180 5.0 0.0 0.00 0.00 0.00 10 1006.4
20260506000604 58 180 5.0 0.0 0.00 0.00 0.00 10 1006.4
20260506000104 58 180 5.0 0.0 0.00 0.00 0.00 10 1006.4
20260505235604 58 180 5.0 0.0 0.00 0.00 0.00 10 1006.5
20260505235104 58 180 5.0 0.0 0.00 0.00 0.00 10 1006.5
20260505234604 58 180 5.0 0.0 0.00 0.00 0.00 10 1006.5
20260505234104 58 170 5.0 0.0 0.00 0.00 0.00 10 1006.5
20260505233604 58 170 5.0 0.0 0.00 0.00 0.00 10 1006.5
20260505233104 58 170 5.0 0.0 0.00 0.00 0.00 10 1006.5
20260505232604 58 170 5.0 0.0 0.00 0.00 0.00 10 1006.6
20260505232104 58 170 5.0 0.0 0.00 0.00 0.00 10 1006.6
20260505231603 58 170 5.0 0.0 0.00 0.00 0.00 10 1006.6
20260505231103 58 170 6.0 0.0 0.00 0.00 0.00 10 1006.6
20260505230603 58 170 6.0 0.0 0.00 0.00 0.00 10 1006.6
20260505225603 58 170 6.0 0.0 0.00 0.00 0.00 10 1006.7
20260505225103 58 170 6.0 0.0 0.00 0.00 0.00 10 1006.7
20260505224603 58 170 6.0 0.0 0.00 0.00 0.00 10 1006.7
20260505224103 58 170 6.0 0.0 0.00 0.00 0.00 10 1006.7
20260505223603 58 170 6.0 0.0 0.00 0.00 0.00 10 1006.8
20260505223103 58 170 4.0 0.0 0.00 0.00 0.00 10 1006.8
20260505222602 58 170 4.0 0.0 0.00 0.00 0.00 10 1006.7
20260505222102 58 170 4.0 0.0 0.00 0.00 0.00 10 1006.8
20260505221602 58 170 4.0 0.0 0.00 0.00 0.00 10 1006.8
20260505221102 59 170 2.0 0.0 0.00 0.00 0.00 10 1006.8
20260505220602 60 170 2.0 0.0 0.00 0.00 0.00 10 1006.8
20260505220103 60 170 2.0 0.0 0.00 0.00 0.00 10 1006.8
20260505215602 60 170 2.0 0.0 0.00 0.00 0.00 10 1006.9
20260505215102 60 170 2.0 0.0 0.00 0.00 0.00 10 1006.9
20260505214602 60 170 2.0 0.0 0.00 0.00 0.00 10 1006.9
20260505214102 60 170 2.0 0.0 0.00 0.00 0.00 10 1006.9
20260505213602 60 180 2.0 0.0 0.00 0.00 0.00 10 1006.9
20260505213102 60 180 2.0 0.0 0.00 0.00 0.00 10 1006.9
20260505212602 60 180 2.0 0.0 0.00 0.00 0.00 10 1006.9
20260505212102 60 180 2.0 0.0 0.00 0.00 0.00 10 1006.9
20260505211602 60 180 2.0 0.0 0.00 0.00 0.00 10 1007.0
20260505211102 60 180 2.0 0.0 0.00 0.00 0.00 10 1007.1
20260505210602 60 180 2.0 0.0 0.00 0.00 0.00 10 1007.1
20260505205601 60 180 2.0 0.0 0.00 0.00 0.00 10 1007.1
20260505205101 60 180 2.0 0.0 0.00 0.00 0.00 10 1007.1
20260505204601 60 180 2.0 0.0 0.00 0.00 0.00 10 1007.1
20260505204101 60 190 1.0 0.0 0.00 0.00 0.00 10 1007.1
20260505203601 60 190 1.0 0.0 0.00 0.00 0.00 10 1007.1
20260505203101 60 190 1.0 0.0 0.00 0.00 0.00 10 1007.1
20260505202601 60 190 1.0 0.0 0.00 0.00 0.00 10 1007.2
20260505202101 60 190 1.0 0.0 0.00 0.00 0.00 10 1007.1
20260505201601 60 190 1.0 0.0 0.00 0.00 0.00 10 1007.2
20260505201101 60 180 2.0 0.0 0.00 0.00 0.00 10 1007.2
20260505200601 60 180 2.0 0.0 0.00 0.00 0.00 10 1007.2
20260505200101 61 180 2.0 0.0 0.00 0.00 0.00 10 1007.2
20260505195601 61 180 2.0 0.0 0.00 0.00 0.00 10 1007.2
20260505195101 60 180 2.0 0.0 0.00 0.00 0.00 10 1007.2
20260505194601 60 180 2.0 0.0 0.00 0.00 0.00 10 1007.2
20260505194100 60 180 2.0 0.0 0.00 0.00 0.00 10 1007.2
20260505193600 60 190 1.0 0.0 0.00 0.00 0.00 10 1007.1
20260505193101 60 190 1.0 0.0 0.00 0.00 0.00 10 1007.1
20260505192600 60 190 1.0 0.0 0.00 0.00 0.00 10 1007.1
20260505192100 61 190 1.0 0.0 0.00 0.00 0.00 10 1007.0
20260505191600 61 0 0.0 0.0 0.00 0.00 0.00 10 1007.0
20260505191100 61 0 0.0 0.0 0.00 0.00 0.00 10 1007.0
20260505190600 61 0 1.0 0.0 0.00 0.00 0.00 10 1007.0
20260505185600 61 0 1.0 0.0 0.00 0.00 0.00 10 1006.9
20260505185100 61 0 1.0 0.0 0.00 0.00 0.00 10 1006.9
20260505184600 61 0 1.0 0.0 0.00 0.00 0.00 10 1006.9
20260505184100 61 210 2.0 0.0 0.00 0.00 0.00 10 1006.9
20260505183600 61 210 2.0 0.0 0.00 0.00 0.00 10 1006.9
20260505183100 61 210 2.0 0.0 0.00 0.00 0.00 10 1006.9
20260505182600 61 210 2.0 0.0 0.00 0.00 0.00 10 1007.0
20260505182100 61 210 2.0 0.0 0.00 0.00 0.00 10 1006.9
20260505181559 61 210 2.0 0.0 0.00 0.00 0.00 10 1006.9
20260505181059 61 210 2.0 0.0 0.00 0.00 0.00 10 1006.9
20260505180559 61 230 2.0 0.0 0.00 0.00 0.00 10 1006.9
20260505180059 61 230 2.0 0.0 0.00 0.00 0.00 10 1006.9
20260505175600 62 230 2.0 0.0 0.00 0.00 0.00 10 1006.9
20260505175059 61 230 2.0 0.0 0.00 0.00 0.00 10 1006.9
20260505174559 61 230 2.0 0.0 0.00 0.00 0.00 10 1007.0
20260505174059 61 250 3.0 0.0 0.00 0.00 0.00 10 1007.0
20260505173559 62 250 3.0 0.0 0.00 0.00 0.00 10 1007.0
20260505173059 62 250 3.0 0.0 0.00 0.00 0.00 10 1007.0
20260505172559 62 250 3.0 0.0 0.00 0.00 0.00 10 1007.1
20260505172059 62 250 3.0 0.0 0.00 0.00 0.00 10 1007.1
20260505171559 61 250 3.0 0.0 0.00 0.00 0.00 10 1007.1
20260505171059 62 250 3.0 0.0 0.00 0.00 0.00 10 1007.1
20260505170559 62 260 4.0 0.0 0.00 0.00 0.00 10 1007.1
20260505170058 62 260 4.0 0.0 0.00 0.00 0.00 10 1007.1
20260505165558 61 260 4.0 0.0 0.00 0.00 0.00 10 1007.2
20260505165059 62 260 4.0 0.0 0.00 0.00 0.00 10 1007.2
20260505164558 61 0 4.0 0.0 0.00 0.00 0.00 10 1007.3
20260505164058 61 260 4.0 0.0 0.00 0.00 0.00 10 1007.3
20260505163558 61 0 4.0 0.0 0.00 0.00 0.00 10 1007.3
20260505163058 61 0 4.0 0.0 0.00 0.00 0.00 10 1007.3
20260505162558 61 250 5.0 0.0 0.00 0.00 0.00 10 1007.3
20260505162058 61 250 5.0 0.0 0.00 0.00 0.00 10 1007.4
20260505161558 61 250 5.0 0.0 0.00 0.00 0.00 10 1007.4
20260505161058 61 250 7.0 0.0 0.00 0.00 0.00 10 1007.4
20260505160558 62 250 7.0 0.0 0.00 0.00 0.00 10 1007.4
20260505153058 61 250 6.0 0.0 0.00 0.00 0.00 10 1007.7
20260505152557 62 250 6.0 0.0 0.00 0.00 0.00 10 1007.6
20260505152057 61 250 6.0 0.0 0.00 0.00 0.00 10 1007.7
20260505151558 61 250 6.0 0.0 0.00 0.00 0.00 10 1007.7
20260505151057 61 240 4.0 0.0 0.00 0.00 0.00 10 1007.7
20260505150557 61 240 4.0 0.0 0.00 0.00 0.00 10 1007.7
20260505140557 62 240 9.0 0.0 0.00 0.00 0.00 10 1007.7
20260505124556 68 230 3.0 0.0 0.00 0.00 0.00 78 1007.8
20260505124056 66 230 3.0 0.0 0.00 0.00 0.00 86 1007.9
20260505123556 66 220 4.0 0.0 0.00 0.00 0.00 83 1007.9
20260505123056 68 220 4.0 0.0 0.00 0.00 0.00 77 1007.9
20260505122555 66 220 4.0 0.0 0.00 0.00 0.00 80 1008.0
20260505122055 67 220 4.0 0.0 0.00 0.00 0.00 73 1007.9
20260505121555 68 220 4.0 0.0 0.00 0.00 0.00 67 1007.8
20260505121055 67 0 2.0 0.0 0.00 0.00 0.00 66 1007.8
20260505120555 69 0 2.0 0.0 0.00 0.00 0.00 61 1007.9
20260505120055 70 0 2.0 0.0 0.00 0.00 0.00 60 1007.8
20260505115555 69 0 2.0 0.0 0.00 0.00 0.00 63 1007.9
20260505115055 68 0 2.0 0.0 0.00 0.00 0.00 64 1007.9
20260505114555 71 0 2.0 0.0 0.00 0.00 0.00 57 1007.9
20260505114055 69 0 2.0 0.0 0.00 0.00 0.00 59 1007.9
20260505113555 70 0 2.0 0.0 0.00 0.00 0.00 54 1008.0
20260505113055 72 0 2.0 0.0 0.00 0.00 0.00 52 1008.0
20260505112555 72 0 2.0 0.0 0.00 0.00 0.00 50 1008.1
20260505112055 71 0 2.0 0.0 0.00 0.00 0.00 49 1008.1
20260505111555 71 220 3.0 0.0 0.00 0.00 0.00 52 1008.1
20260505111055 72 220 2.0 0.0 0.00 0.00 0.00 49 1008.2
20260505110555 72 220 2.0 0.0 0.00 0.00 0.00 49 1008.2
20260505102054 74 220 2.0 0.0 0.00 0.00 0.00 53 1008.5
20260505101554 72 220 2.0 0.0 0.00 0.00 0.00 53 1008.6
20260505101054 72 220 2.0 0.0 0.00 0.00 0.00 55 1008.6
20260505100554 71 0 2.0 0.0 0.00 0.00 0.00 56 1008.7
20260505100054 72 0 2.0 0.0 0.00 0.00 0.00 52 1008.6
20260505095554 72 0 2.0 0.0 0.00 0.00 0.00 52 1008.6
20260505095054 69 0 2.0 0.0 0.00 0.00 0.00 57 1008.7
20260505094554 70 0 2.0 0.0 0.00 0.00 0.00 57 1008.8
20260505094054 72 0 2.0 0.0 0.00 0.00 0.00 51 1008.7
20260505093554 72 0 2.0 0.0 0.00 0.00 0.00 54 1008.7
20260505093053 74 0 2.0 0.0 0.00 0.00 0.00 49 1008.7
20260505092553 71 0 1.0 0.0 0.00 0.00 0.00 52 1008.8
20260505092053 72 0 1.0 0.0 0.00 0.00 0.00 52 1008.8
20260505091553 71 0 1.0 0.0 0.00 0.00 0.00 53 1008.9
20260505091053 74 0 2.0 0.0 0.00 0.00 0.00 51 1008.9